Location: Sigmaringen
(48.0900°N, 9.2120°E)
Time: 08:25:17
(UTC+01:00)

ISS - Pass Details

Date: 10 January 2018
Orbit: 402 x 407 km, 51.6° (Epoch: 24 January)

Event Time Altitude Azimuth Distance (km) Brightness Sun altitude
Exits shadow 04:58:11 11° 74° (ENE) 1,436 -0.2 -31.4°
Drops below altitude 10° 04:58:16 10° 74° (ENE) 1,470 -0.2 -31.4°
Sets 05:00:25 0° 82° (E) 2,331 1.2 -31.1°
